Regional Weather Roundup
Issued by NWS

Home | Current Version | Previous Version | Graphics & Text | Print | Product List | Glossary Off
Versions: 1 2 3 4 5 6 7 8 9 10 11 12 13 14 15 16 17 18 19 20 21 22 23 24 25 26 27 28 29 30 31 32 33 34 35 36 37 38 39 40 41 42 43 44 45 46 47 48 49 50

000
ASUS43 KMPX 201201
RWRMN
WEATHER ROUNDUP FOR MINNESOTA
NATIONAL WEATHER SERVICE TWIN CITIES/CHANHASSEN MN
700 AM CDT SUN AUG 20 2017


NOTE: "FAIR" INDICATES FEW OR NO CLOUDS BELOW 12,000 FEET WITH NO
SIGNIFICANT WEATHER AND/OR OBSTRUCTIONS TO VISIBILITY. N/A MEANS
CURRENT SKY AND/OR WEATHER CONDITIONS ARE NOT AVAILABLE.

MNZ060>063-068>070-201300-
   Twin Cities Metro

CITY           SKY/WX    TMP DP  RH WIND       PRES   REMARKS
TWIN CITIES    CLOUDY    66  61  84 SE7       29.89S
6HR MIN TEMP:  66; 6HR MAX TEMP:  70;

ST PAUL        CLOUDY    65  64  97 SE6       29.89S
CRYSTAL        CLOUDY    66  60  81 S5        29.87S
BLAINE         CLOUDY    66  64  94 SE5       29.88S
LAKEVILLE      CLOUDY    61  61 100 CALM      29.89S
EDEN PRAIRIE   CLOUDY    67  64  90 SE3       29.87S
6HR MIN TEMP:  65; 6HR MAX TEMP:  68;

SOUTH ST PAUL  CLOUDY    65  64  94 SE5       29.89S
LAKE ELMO      MOCLDY    64  63  94 SE6       29.91R
$$
MNZ001>005-007-008-013>017-022>024-027-028-201300-
   Northwest Minnesota

CITY           SKY/WX    TMP DP  RH WIND       PRES   REMARKS
BEMIDJI        CLEAR     63  61  94 W13       29.84R
HALLOCK        CLEAR     59  50  72 NW8       29.85R
ROSEAU         CLEAR     61  55  82 W7        29.82R
WARROAD        CLEAR     63  55  77 W8        29.80R
CROOKSTON      CLEAR     55  52  88 NW7       29.89R
FOSSTON        PTCLDY    57  55  94 NW6       29.88R
DETROIT LAKES  CLEAR     61  57  88 NW9       29.90R
MOORHEAD       MOCLDY    61  54  77 NW8       29.90R
PARK RAPIDS    CLEAR     63  61  93 W9        29.85R
MAHNOMEN       FAIR      58  56  92 NW6       29.88R
$$
MNZ006-009>011-018-025>026-201300-
   North Central Minnesota

CITY           SKY/WX    TMP DP  RH WIND       PRES   REMARKS
BAUDETTE       CLEAR     63  60  90 W7        29.77R
FLAG ISLAND    HAZE      66  55  68 NW13      29.76R VSB 3/4
INTL FALLS     MOCLDY    62  59  90 VRB5      29.76R
6HR MIN TEMP:  61; 6HR MAX TEMP:  63;

WASKISH        CLEAR     66  61  82 W13G20    29.80R
BIG FORK       PTCLDY    63  61  94 S6        29.81R
LONGVILLE      CLEAR     64  63  94 SW3       29.83R
GRAND RAPIDS   PTCLDY    63  62  97 S10       29.84S
CRANE LAKE     CLEAR     61  59  94 S5        29.81R
ORR            CLEAR     59  57  94 S3        29.78S
COOK           CLEAR     63  61  94 S7        29.82R
WALKER         PTSUNNY   63  61  94 W10       29.83R
$$
MNZ012-019>021-037-201300-
   Northeast Minnesota

CITY           SKY/WX    TMP DP  RH WIND       PRES   REMARKS
DULUTH         PTCLDY    61  61 100 S6        29.86S
6HR MIN TEMP:  60; 6HR MAX TEMP:  64;

ELY            CLEAR     63  61  94 S3        29.83S
HIBBING        FOG       51  51 100 CALM      29.84R VSB 1/4
EVELETH        CLEAR     54  52  93 CALM      29.85S FOG
DULUTH HARBOR  CLEAR     64  61  88 CALM      29.85S
TWO HARBORS    CLEAR     57  52  82 CALM      29.85S HAZE
GRAND MARAIS     N/A     58  57  97 CALM      29.86S
G MARAIS ARPRT CLEAR     57  54  88 S3        29.89S
$$
MNZ029>031-032-039>041-046>048-054>057-064-201300-
   West Central Minnesota

CITY           SKY/WX    TMP DP  RH WIND       PRES   REMARKS
FERGUS FALLS   MOCLDY    61  61 100 NW8       29.89R
WHEATON        CLOUDY    64  57  77 W8        29.93R
MORRIS         CLOUDY    64  63  94 NW13      29.88R
ALEXANDRIA     PTCLDY    65  63  93 W8        29.90R
ELBOW LAKE     FAIR      62  61  97 NW10      29.89R
WADENA         CLEAR     63  63 100 W7        29.86R
GLENWOOD       CLOUDY    63  63 100 SW6       29.90R FOG
APPLETON       CLOUDY    64  63  94 W5        29.88S
BENSON         CLOUDY    63  61  94 CALM      29.90S
ORTONVILLE     CLOUDY    64  63  94 MISG      29.89R
MADISON        CLOUDY    63  63 100 CALM      29.89S
WILLMAR        FAIR      63  63 100 CALM      29.90R FOG
$$
MNZ033>034-036-042>043-049>051-058-059-201300-
   Central Minnesota

CITY           SKY/WX    TMP DP  RH WIND       PRES   REMARKS
ST CLOUD       CLOUDY    61  61 100 S5        29.88R FOG
6HR MIN TEMP:  60; 6HR MAX TEMP:  64;

SAUK CENTRE    FAIR      63  62  98 S3        29.89R
PAYNESVILLE    CLOUDY    63  62  98 SW3       29.89R FOG
AITKIN         PTCLDY    64  63  94 S5        29.84S
PINE RIVER     CLEAR     57  57 100 CALM      29.88R FOG
BRAINERD       CLEAR     63  62  97 S6        29.86R FOG
STAPLES        CLEAR     61  61 100 CALM      29.85S FOG
LONG PRAIRIE   FAIR      61  61 100 S5        29.88R FOG
LITTLE FALLS   CLOUDY    61  59  94 CALM      29.88R FOG
LITCHFIELD     CLOUDY    66  64  94 CALM      29.88S
BUFFALO        CLOUDY    65  61  88 CALM      29.89S
MAPLE LAKE     CLOUDY    64  64  97 CALM      29.88S
HUTCHINSON     CLEAR     64  64  99 CALM      29.89S FOG
$$
MNZ037-044-045-052-053-201300-
   East Central Minnesota

CITY           SKY/WX    TMP DP  RH WIND       PRES   REMARKS
PRINCETON      PTCLDY    64  63  94 CALM      29.88R
MORA           CLOUDY    59  59 100 CALM      29.90R
CAMBRIDGE      CLOUDY    66  63  88 S5        29.88S
RUSH CITY      CLOUDY    62  60  94 S5        29.88S FOG
MOOSE LAKE     FOG       55  54  94 SW3       29.85R VSB 1
HINCKLEY       FAIR      63  63 100 S5        29.88R
CLOQUET        CLEAR     61  57  88 S5        29.87R FOG
MCGREGOR       PTCLDY    63  61  94 S7        29.86R
$$
MNZ071>073-080-081-089-090-097-098-201300-
   Southwest Minnesota

CITY           SKY/WX    TMP DP  RH WIND       PRES   REMARKS
MONTEVIDEO     CLEAR     63  63 100 CALM      29.90R FOG
GRANITE FALLS  CLEAR     62  62  99 W5        29.90R FOG
CANBY          CLOUDY    68  63  83 CALM      29.91R
MARSHALL       CLEAR     62  61  96 N3        29.89R FOG
REDWOOD FALLS  CLOUDY    64  62  93 CALM      29.88R
OLIVIA         CLOUDY    63  61  94 CALM      29.88R FOG
PIPESTONE      CLEAR     64  61  88 CALM      29.92R
WINDOM         CLOUDY    66  63  88 S6        29.92R
WORTHINGTON    PTCLDY    67  63  87 SW7       29.93R
JACKSON        CLOUDY    63  61  94 CALM      29.93R
TRACY          CLEAR     63  63 100 CALM      29.90R FOG
SLAYTON        CLEAR     62  57  86 CALM      29.91R
$$
MNZ065>067-074>077-082>085-091>093-201300-
   South Central Minnesota

CITY           SKY/WX    TMP DP  RH WIND       PRES   REMARKS
MANKATO        CLOUDY    67  64  90 S5        29.91R
NEW ULM        CLOUDY    64  64 100 S8        29.90R
ST JAMES       MOCLDY    64  63  94 S3        29.91R
FAIRMONT       CLOUDY    65  64  97 S6        29.92R
GLENCOE        CLOUDY    65  65 100 CALM      29.88R
FARIBAULT      CLOUDY    66  63  88 S7        29.91R
OWATONNA       CLOUDY    66  63  88 S12       29.91R
WASECA         CLOUDY    64  61  88 S5        29.92R
ALBERT LEA     CLOUDY    66  66 100 S5        29.92R
$$
MNZ078>079-086>088-094>096-201300-
   Southeast Minnesota

CITY           SKY/WX    TMP DP  RH WIND       PRES   REMARKS
ROCHESTER      MOCLDY    63  62  97 S8        29.94S
6HR MIN TEMP:  60; 6HR MAX TEMP:  63;

RED WING       CLOUDY    68  61  77 SE7       29.90S
DODGE CENTER   CLOUDY    63  61  94 S6        29.93S
WINONA         MOCLDY    63  61  94 SE3       29.94S
AUSTIN         CLOUDY    63  61  94 CALM      29.94R
PRESTON        CLOUDY    62  59  91 S7        29.95S
$$
ABBREVIATIONS USED IN REMARKS
   TC - TEMPERATURES IN CELSIUS
  WCI - WIND CHILL INDEX
   HX - HEAT INDEX
  VSB - VISIBILITY
$$




USA.gov is the U.S. government's official web portal to all federal, state and local government web resources and services.